Home   Weather   Cobar   Past weeks
Flag for Australia

Past Weather in Cobar, New South Wales, Australia — Yesterday and Last 2 Weeks

Now
75 °F

Mild.


Feels Like: 77 °F
Forecast: 66 / 48 °F
Wind: 13 mph from North

Location: Cobar

Current Time: May 25, 2019 at 1:52:09 pm

Latest Report: May 25, 2019 at 12:00 pm


Visibility: N/A

Pressure: 30.10 "Hg

Humidity: 30%

Dew Point: 42 °F

Location of CobarLocation

Past Weather in Cobar — Graph

°F

Cobar Temperature Yesterday

Maximum temperature yesterday: 75 °F (at 2:00 pm)
Minimum temperature yesterday: 56 °F (at 5:00 am)
Average temperature yesterday: 63 °F

High & Low Weather Summary for the Past Weeks

 TemperatureHumidityPressure
High78 °F (May 21, 2:00 pm)88% (May 13, 6:00 am)30.41 "Hg (May 13, 6:00 am)
Low43 °F (May 11, 6:00 am)22% (May 15, 5:00 pm)30.08 "Hg (May 10, 12:00 pm)
Average61 °F50%30.29 "Hg
* Reported May 10 12:00 pm — May 25 12:00 pm, Cobar. Weather by CustomWeather, © 2019

Note: Actual official high and low records may vary slightly from our data, if they occured in-between our weather recording intervals... More about our weather records

Advertising

Cobar Weather History for the Previous 24 Hours

Scroll right to see more
 ConditionsComfort  
Time TempWeatherWind HumidityBarometerVisibility
12:00 pm
Sat, May 25
75 °FMild.13 mph30%30.10 "HgN/A
11:00 am73 °FMild.12 mph32%30.13 "HgN/A
9:00 am63 °FMild.8 mph47%30.15 "HgN/A
8:00 am59 °FRefreshingly cool.8 mph56%30.14 "HgN/A
6:00 am54 °FCool.8 mph63%30.13 "HgN/A
5:00 am52 °FCool.9 mph62%30.13 "HgN/A
3:00 am53 °FCool.6 mph58%30.14 "HgN/A
2:00 am57 °FRefreshingly cool.6 mph53%30.15 "HgN/A
12:00 am59 °FRefreshingly cool.6 mph46%30.17 "HgN/A
11:00 pm
Fri, May 24
57 °FRefreshingly cool.7 mph50%30.18 "HgN/A
9:00 pm61 °FRefreshingly cool.3 mph44%30.18 "HgN/A
8:00 pm63 °FMild.2 mph44%30.18 "HgN/A
6:00 pm67 °FMild.5 mph33%30.17 "HgN/A
5:00 pm71 °FMild.5 mph28%30.17 "HgN/A
3:00 pm74 °FPassing clouds.6 mph26%30.16 "HgN/A
2:00 pm75 °FMild.7 mph27%30.17 "HgN/A
Weather by CustomWeather, © 2019

See weather overview